Regional Weather Roundup
Issued by NWS

Home | Current Version | Previous Version | Graphics & Text | Print | Product List | Glossary On
Versions: 1 2 3 4 5 6 7 8 9 10 11 12 13 14 15 16 17 18 19 20 21 22 23 24 25 26 27 28 29 30 31 32 33 34 35 36 37 38 39 40 41 42 43 44 45 46 47 48 49 50
000
ASUS43 KMKX 211100
RWRWI

WISCONSIN REGIONAL WEATHER ROUNDUP
NATIONAL WEATHER SERVICE MILWAUKEE/SULLIVAN WI
600 AM CDT THU SEP 21 2017

NOTE: "FAIR" INDICATES FEW OR NO CLOUDS BELOW 12,000 FEET WITH NO
SIGNIFICANT WEATHER AND/OR OBSTRUCTIONS TO VISIBILITY.

WIZ001-002-006>008-014>016-023>028-211200-
NORTHWEST WISCONSIN

CITY           SKY/WX    TMP DP  RH WIND       PRES   REMARKS
SUPERIOR ARPT  CLEAR     39  39 100 CALM      30.01S FOG
ASHLAND        CLEAR     42  41  96 CALM      30.04S FOG
HAYWARD        CLEAR     41  39  93 N3        30.03F
SIREN          PTCLDY    41  41  99 CALM      30.02F
CUMBERLAND     CLEAR     45  43  93 CALM      30.02S
RICE LAKE      FOG       45  45  99 CALM      30.03S VSB 1/2
CHETEK         PTCLDY    47  47 100 CALM      30.02S FOG
LADYSMITH      CLEAR     47  47  97 N5        30.04S
EAU CLAIRE     CLEAR     49  49 100 CALM      30.01R
MENOMONIE      CLEAR     51  50  98 NW3       30.01S
NEW RICHMOND   CLEAR     45  45  99 CALM      30.00F FOG
OSCEOLA          N/A     43  43 100 CALM      30.03F
$$

WIZ003>005-009-010-017-018-211200-
NORTH CENTRAL WISCONSIN

CITY           SKY/WX    TMP DP  RH WIND       PRES   REMARKS
MANITOWISH WTR FOG       42  42 100 CALM      30.04R VSB 1/2
ARBOR VITAE    FOG       47  46  96 CALM      30.04R VSB 1/2
WOODRUFF       FOG       47  46  96 CALM      30.04R VSB 1/2
RHINELANDER    CLEAR     54  54 100 CALM      30.05R
EAGLE RIVER    FOG       46  46 100 CALM      30.04R VSB 1/2
LAND O LAKES   FOG       46  46 100 CALM      30.07R VSB 1
PHILLIPS       FOG       45  45 100 CALM      30.03R VSB 1/2
TOMAHAWK       FOG       47  47  97 CALM      30.04R VSB 1/2
MEDFORD        CLEAR     50  49  97 NE3       30.02R
MERRILL        FOG       52  52 100 CALM      30.03R VSB 1/4
$$

WIZ029-030-035-036-043>047-211200-
CENTRAL WISCONSIN

CITY           SKY/WX    TMP DP  RH WIND       PRES   REMARKS
WAUSAU         CLEAR     59  58  96 CALM      29.99F
MOSINEE        PTCLDY    61  61 100 N12       30.00F
MARSHFIELD     CLEAR     60  55  83 NE7       29.99S
STEVENS POINT  PTCLDY    60  60 100 NE5       29.99R FOG
WAUPACA        FOG       68  68  98 N3        29.98R VSB 3/4
WAUTOMA        CLOUDY    68  68 100 CALM      29.98R FOG
WISC RAPIDS    CLEAR     62  61  96 NE3       30.00R
CAMP DOUGLAS   FOG       57  57 100 W3        29.98R VSB 1/2
$$

WIZ011>013-019>022-031-037>040-048>050-211200-
NORTHEAST WISCONSIN

CITY           SKY/WX    TMP DP  RH WIND       PRES   REMARKS
ANTIGO         PTCLDY    56  56 100 NE5       30.03R
SHAWANO        MOCLDY    67  66  95 NE9       30.00R
OCONTO         CLOUDY    67  66  96 CALM      30.00R
STURGEON BAY   MOCLDY    67  66  97 N6        30.00R FOG
GREEN BAY      CLOUDY    67  67 100 N8        29.98R
MANITOWOC      CLOUDY    67  66  97 CALM      30.00
APPLETON       FOG       66  66 100 N8        29.96R VSB 1/2
CLINTONVILLE   NOT AVBL
OSHKOSH        MOCLDY    67  67 100 S5        29.98R
$$

WIZ032>034-041-042-053>061-211200-
SOUTHWEST WISCONSIN

CITY           SKY/WX    TMP DP  RH WIND       PRES   REMARKS
LA CROSSE      NOT AVBL
SPARTA         FOG       53  53 100 CALM      30.00R VSB 1/4
VIROQUA        CLEAR     62  62 100 NE3       30.00R
BOSCOBEL       MOCLDY    68  67  96 CALM      29.97R FOG
PRAIRIE DU CHI CLOUDY    67  65  94 CALM      29.95F FOG
PLATTEVILLE    CLOUDY    67  67 100 W3        29.97S
$$

WIZ056-057-062-063-064-067-068-211200-
SOUTH CENTRAL WISCONSIN

CITY           SKY/WX    TMP DP  RH WIND       PRES   REMARKS
REEDSBURG      MOCLDY    66  66 100 CALM      29.97R
BARABOO/DELLS  CLOUDY    67  66  96 W3        29.97R FOG
LONE ROCK      NOT AVBL
MINERAL POINT  CLOUDY    70  70 100 CALM      29.97S FOG
MADISON        MOCLDY    70  68  93 CALM      29.96R
MIDDLETON      MOCLDY    70  70 100 W3        29.97S
WATERTOWN      CLOUDY    68  68 100 CALM      29.96R
MONROE         CLOUDY    68  63  83 CALM      29.97S
JANESVILLE     CLOUDY    68  68 100 CALM      29.95S
$$

WIZ051-052-058>065-066-070>072-211200-
SOUTHEAST WISCONSIN

CITY           SKY/WX    TMP DP  RH WIND       PRES   REMARKS
MILWAUKEE      CLOUDY    72  67  84 SW8       29.97R
WAUKESHA       CLEAR     66  63  88 CALM      29.99R
MILWAUKEE/TIMM MOCLDY    68  63  83 CALM      29.97S
RACINE         CLOUDY    68  67  96 CALM      29.98R
BURLINGTON     CLOUDY    65  65 100 CALM      29.97R
KENOSHA        CLOUDY    69  65  86 CALM      29.97R
FOND DU LAC    CLOUDY    69  66  90 CALM      29.99R
SHEBOYGAN      MOCLDY    66  66 100 CALM      30.00R
WEST BEND        N/A     68  66  94 CALM      29.97R
JUNEAU         MOCLDY    65  65  98 N3        29.99R FOG
$$

LSZ147-162-211200-
LAKE SUPERIOR

STATION/POSITION TIME  TEMP    WIND        PRES    WAVE
                       AIR SEA DIR/SP/G            HT/PER
                 (UTC) (F)     (DEG/KT/KT) (MB)    (FT/S)
W MID LAKE BUOY  0950   56 53  340/  2/  4 1016.2R   1
DEVILS ISLAND    1000   58      40/  2/  3 1016.7R
PORT WING        1040          140/  2/  5 1017.3R
SAXON HARBOR     1030   49     200/  5/  7 1016.6R
$$

LMZ867-665-643>646-211200-
LAKE MICHIGAN

STATION/POSITION TIME  TEMP    WIND        PRES    WAVE
                       AIR SEA DIR/SP/G            HT/PER
                 (UTC) (F)     (DEG/KT/KT) (MB)    (FT/S)
S GREEN BAY BUOY 1030   67 66   90/  2/  2 1015.3R
N MID LAKE BUOY  0950   66 65   30/  6/  8 1015.1R   3/ 6
NORTHPORT PIER   1040   67     360/  6/  7 1015.6R
KEWAUNEE LAKESHO 1030   64     310/  3/  4 1014.3R
SHEBOYGAN LAKESH 1000   68      80/ 16/ 16 1014.6R
PORT WASHINGTON  1040   69     360/  3/  5 1015.6R
ATWATER BUOY     0909   69 67  180/  8/ 10 1014.0R
MILWAUKEE LAKESH 1030   72     230/  4/  4   N/A
S MID LAKE BUOY  0950   70 69  210/  8/ 10 1014.1R   1/ 3
KENOSHA   LAKESH 1000   70     340/  6/  7 1014.2
$$

TC  - TEMPERATURE IN CELSIUS
VSB - VISIBILITY IN STATUTE MILES
WCI - WIND CHILL INDEX
HX  - HEAT INDEX




USA.gov is the U.S. government's official web portal to all federal, state and local government web resources and services.